Skip Page Navigation
NASA JPL Caltech
NASA Logo - Jet Propulsion Laboratory + View the NASA Portal
+ Center for Near-Earth Object Studies
JPL Home Earth Solar System Stars & Galaxies Technology
JPL Solar System Dynamics
BODIES ORBITS EPHEMERIDES TOOLS PHYSICAL DATA DISCOVERY FAQ SITE MAP
IMPORTANT: The SSD Announcement email list is now available. Major changes are coming in the near future, including possible hostname and/or URL changes. To be notified of such changes, subscribe to this email list.

Please visit this page for more details.


JPL Small-Body Database Browser
Search: [ help ]  
351613 (2005 WR11)
Classification: Main-belt Asteroid          SPK-ID: 2351613
Ephemeris | Orbit Diagram | Orbital Elements | Mission Design | Physical Parameters | Discovery Circumstances ]

[ show orbit diagram ]
Orbital Elements at Epoch 2459000.5 (2020-May-31.0) TDB
Reference: JPL 9 (heliocentric ecliptic J2000)
 Element Value Uncertainty (1-sigma)   Units 
e .04633647474398458 5.4464e-08  
a 2.213630349504428 1.7957e-08 au
q 2.111058522722098 1.1776e-07 au
i 4.173450238869831 7.763e-06 deg
node 66.81438729732082 8.3771e-05 deg
peri 100.4919771579975 0.00012197 deg
M 44.09623955593113 9.1231e-05 deg
tp 2458853.148306321580
(2020-Jan-04.64830632)
0.00030441 TDB
period 1202.973547368987
3.29
1.4638e-05
4.008e-08
d
yr
n .2992584506844336 3.6414e-09 deg/d
Q 2.316202176286757 1.8789e-08 au
  Orbit Determination Parameters
   # obs. used (total)      104  
   data-arc span      4741 days (12.98 yr)  
   first obs. used      2005-10-25  
   last obs. used      2018-10-18  
   planetary ephem.      DE431  
   SB-pert. ephem.      SB431-N16  
   condition code      0  
   norm. resid. RMS      .61138  
   source      ORB  
   producer      Otto Matic  
   solution date      2018-Oct-31 04:55:49  

Additional Information
 Earth MOID = 1.12125 au 
 Jupiter MOID = 2.64954 au 
 T_jup = 3.650 
[ show covariance matrix ]

Ephemeris | Orbit Diagram | Orbital Elements | Mission Design | Physical Parameters | Discovery Circumstances ]

Physical Parameter Table
Parameter Symbol Value Units Sigma Reference Notes
absolute magnitude H 18.2   n/a MPO413350  

351613 (2005 WR11)          Discovered 2005-Nov-22 by Spacewatch at Kitt Peak
Reference: 20130127/Numbers.arcLast Updated: 2013-01-31
Ephemeris | Orbit Diagram | Orbital Elements | Mission Design | Physical Parameters | Discovery Circumstances ]
ABOUT SSD CREDITS/AWARDS PRIVACY/COPYRIGHT GLOSSARY LINKS
FirstGov 2020-Feb-24 18:42 UT
(server date/time)  
NASA Home Page
Site Manager:   Ryan S. Park
Webmaster  Alan B. Chamberlin